Regional Weather Roundup
Issued by NWS

Home | Current Version | Previous Version | Graphics & Text | Print | Product List | Glossary On
Versions: 1 2 3 4 5 6 7 8 9 10 11 12 13 14 15 16 17 18 19 20 21 22 23 24 25 26 27 28 29 30 31 32 33 34 35 36 37 38 39 40 41 42 43 44 45 46 47 48 49 50
000
ASUS43 KMKX 010800
RWRWI

WISCONSIN REGIONAL WEATHER ROUNDUP
NATIONAL WEATHER SERVICE MILWAUKEE/SULLIVAN WI
300 AM CDT WED OCT 01 2014

NOTE: "FAIR" INDICATES FEW OR NO CLOUDS BELOW 12,000 FEET WITH NO
SIGNIFICANT WEATHER AND/OR OBSTRUCTIONS TO VISIBILITY.

WIZ001-002-006>008-014>016-023>028-010900-
NORTHWEST WISCONSIN

CITY           SKY/WX    TMP DP  RH WIND       PRES   REMARKS
SUPERIOR ARPT  CLOUDY    48  46  92 E5        29.92F
ASHLAND        MOCLDY    41  40  96 S3        29.96R
HAYWARD        CLOUDY    47  42  83 SE8       29.94F
SIREN          CLOUDY    48  42  80 SE10G20   29.90F
CUMBERLAND     CLOUDY    45  41  87 SE10      29.94S
RICE LAKE      CLOUDY    46  42  86 SE10      29.96S
CHETEK         CLOUDY    46  43  90 E8        29.95F
LADYSMITH      CLOUDY    46  43  87 SE9       29.99F
EAU CLAIRE     MOCLDY    47  42  83 SE10      29.95F
MENOMONIE      CLOUDY    48  43  84 SE10      29.95F
NEW RICHMOND   CLOUDY    47  42  82 SE3       29.91F
OSCEOLA        CLOUDY    48  44  84 SE12G17   29.92F
$$

WIZ003>005-009-010-017-018-010900-
NORTH CENTRAL WISCONSIN

CITY           SKY/WX    TMP DP  RH WIND       PRES   REMARKS
MANITOWISH WTR CLOUDY    43  43 100 SE12      29.96F
ARBOR VITAE    CLOUDY    44  42  93 SE8       29.98S
WOODRUFF       CLOUDY    44  42  93 SE8       29.98S
RHINELANDER    CLOUDY    43  42  97 SE9       30.01S
EAGLE RIVER    CLOUDY    44  43  99 SE6       29.98F
LAND O LAKES   CLOUDY    45  44  97 SE8       29.98F
PHILLIPS       CLOUDY    44  42  93 S10       29.98R
TOMAHAWK       CLOUDY    43  41  93 SE3       30.00S
MEDFORD        CLOUDY    43  42  97 SE13      29.98S FOG
MERRILL        CLOUDY    44  44  99 SE8       30.00S
$$

WIZ029-030-035-036-043>047-010900-
CENTRAL WISCONSIN

CITY           SKY/WX    TMP DP  RH WIND       PRES   REMARKS
WAUSAU         CLOUDY    44  42  93 SE12      30.00S
MOSINEE        CLOUDY    43  43 100 SE9       30.01F FOG
MARSHFIELD     CLOUDY    46  43  89 SE14      30.00S
STEVENS POINT  CLOUDY    44  43  95 SE8       30.02S
WAUPACA        CLOUDY    49  47  93 SW3       30.03S FOG
WAUTOMA        NOT AVBL
WISC RAPIDS    CLOUDY    47  43  86 SE10      30.01F
CAMP DOUGLAS   NOT AVBL
$$

WIZ011>013-019>022-031-037>040-048>050-010900-
NORTHEAST WISCONSIN

CITY           SKY/WX    TMP DP  RH WIND       PRES   REMARKS
ANTIGO         FOG       43  43 100 SE8       30.02F VSB 3/4
SHAWANO        CLOUDY    48  46  91 CALM      30.03F FOG
OCONTO         CLOUDY    48  48 100 CALM      30.03F
STURGEON BAY   NOT AVBL
GREEN BAY      CLOUDY    48  47  96 CALM      30.03S FOG
MANITOWOC      NOT AVBL
APPLETON       CLOUDY    46  45  93 NE3       30.03F FOG
CLINTONVILLE   CLOUDY    45  45 100 CALM      30.03S FOG
OSHKOSH        CLOUDY    50  49  96 SE3       30.02S FOG
$$

WIZ032>034-041-042-053>061-010900-
SOUTHWEST WISCONSIN

CITY           SKY/WX    TMP DP  RH WIND       PRES   REMARKS
LA CROSSE      CLOUDY    51  44  77 SE10      29.97S
SPARTA         CLOUDY    47  42  84 SE13      29.98F
VIROQUA        CLOUDY    45  45 100 SE10G20   29.95F
BOSCOBEL       CLOUDY    50  45  83 VRB6      29.98F
PRAIRIE DU CHI PTCLDY    48  43  84 E7        29.95F
PLATTEVILLE    CLOUDY    48  46  91 SE10G18   29.98F
$$

WIZ056-057-062-063-064-067-068-010900-
SOUTH CENTRAL WISCONSIN

CITY           SKY/WX    TMP DP  RH WIND       PRES   REMARKS
REEDSBURG      CLOUDY    47  45  91 E7        29.99F
BARABOO/DELLS  CLOUDY    47  45  90 SE6       30.00S
LONE ROCK      NOT AVBL
MINERAL POINT  CLOUDY    50  45  81 SE10      29.98R
MADISON        CLOUDY    49  45  86 E6        29.99F
MIDDLETON      CLOUDY    51  47  86 E10       30.00F
WATERTOWN      CLOUDY    48  48 100 CALM      30.01S
MONROE         CLOUDY    50  46  87 E8        29.98F
JANESVILLE     CLOUDY    52  46  82 E5        29.99F
$$

WIZ051-052-058>065-066-070>072-010900-
SOUTHEAST WISCONSIN

CITY           SKY/WX    TMP DP  RH WIND       PRES   REMARKS
MILWAUKEE      CLOUDY    55  49  80 E6        30.00F
WAUKESHA       CLOUDY    46  46 100 CALM      30.02S
MILWAUKEE/TIMM CLOUDY    52  46  82 CALM      30.02S
RACINE         CLOUDY    57  47  69 SE9       30.02F
BURLINGTON     CLOUDY    49  48  99 CALM      30.00S
KENOSHA        CLOUDY    55  48  77 SE7       30.01S
FOND DU LAC    LGT RAIN  48  46  93 CALM      30.03R FOG
SHEBOYGAN      NOT AVBL
WEST BEND      CLOUDY    48  46  93 CALM      30.01F
JUNEAU         CLOUDY    47  46  95 CALM      30.03S
$$

LSZ147-162-010900-
LAKE SUPERIOR

STATION/POSITION TIME  TEMP    WIND        PRES    WAVE
                       AIR SEA DIR/SP/G            HT/PER
                 (UTC) (F)     (DEG/KT/KT) (MB)    (FT/S)
W MID LAKE BUOY  0650   49 50  130/ 14/ 16 1015.1F   2/ 4
DEVILS ISLAND    0700   50     100/ 10/ 12 1014.1F
SAXON HARBOR     0700   39     170/  2/  4 1013.2F
$$

LMZ867-665-643>646-010900-
LAKE MICHIGAN

STATION/POSITION TIME  TEMP    WIND        PRES    WAVE
                       AIR SEA DIR/SP/G            HT/PER
                 (UTC) (F)     (DEG/KT/KT) (MB)    (FT/S)
CHAMBERS ISLAND  0700   53     120/  3/  4 1017.6S
S GREEN BAY BUOY 0730   53                 1018.1F
N MID LAKE BUOY  0650   54 58  160/ 10/ 12 1018.1R   1/ 4
NORTHPORT PIER   0700   55     140/  9/ 12 1017.6S
SISTER BAY       0557             CALM       N/A
KEWAUNEE LAKESHO 0700   52     160/  9/ 10 1016.5S
SHEBOYGAN LAKESH 0700   54 54  120/ 12/ 13 1017.3F
PORT WASHINGTON  0700   55     120/  5/  6 1017.3
ATWATER BUOY     0700   56     100/ 10/ 12 1017.3F
MILWAUKEE LAKESH 0700   56     100/  7/  8   N/A
S MID LAKE BUOY  0650   57 62  130/ 10/ 14 1017.0F   2/ 6
KENOSHA   LAKESH 0700   57     130/ 10/ 16 1015.9F
$$

TC  - TEMPERATURE IN CELSIUS
VSB - VISIBILITY IN STATUTE MILES
WCI - WIND CHILL INDEX
HX  - HEAT INDEX



USA.gov is the U.S. government's official web portal to all federal, state and local government web resources and services.